Preview of NWS' New Version of Forecast
This preview is not operational and should not be used for support decisions.

Regional Weather Roundup (RWR)

Issued by National Weather Service (NWS)

                            
000
ASUS42 KTBW 242316
RWRFL 
FLORIDA REGIONAL WEATHER ROUNDUP
NATIONAL WEATHER SERVICE TAMPA BAY RUSKIN FL
700 PM EDT FRI MAY 24 2019

NOTE: "FAIR" INDICATES FEW OR NO CLOUDS BELOW 12,000 FEET WITH NO
SIGNIFICANT WEATHER AND/OR OBSTRUCTIONS TO VISIBILITY.

FLZ001>010-012>015-112-114-115-250000-
PANHANDLE FLORIDA
  
CITY           SKY/WX    TMP DP  RH WIND       PRES   REMARKS
PENSACOLA      FAIR      86  72  62 SW8       30.08F                  
PENSACOLA NAS  FAIR      84  74  71 SW8       30.09F                  
MILTON NAS     FAIR      87  74  64 S9        30.09S HX  95           
CRESTVIEW      FAIR      93  63  36 E5        30.10S                  
DUKE FIELD     FAIR      91  71  53 S6        30.08F HX  97           
VALPARAISO     FAIR      85  73  67 S8        30.09S                  
PANAMA CITY    FAIR      85  71  63 S9        30.09S                  
TYNDALL AFB    SUNNY     82  73  74 CALM      30.12F                  
APALACHICOLA   FAIR      83  68  60 SW5       30.09S                  

STATION/POSITION SKY/WX   TEMP    WIND        PRES    WAVE   SWELL
                          AIR SEA DIR/SP/G            HT/PER HT/PER
                          (F)     (DEG/KT/KT) (MB)    (FT/S) (FT/S)
30.1N   87.6W                                   N/A     3/ 7
29.2N   88.2W                      90/ 12/ 16 1019.4F   4/ 7   3/ 7
PANAMA CITY BEAC           81 85  200/  7/  9 1019.7F
TOWER C          NOT AVBL

$$
FLZ011-016>038-118-127-128-134-139-239-250000-
NORTH FLORIDA
  
CITY           SKY/WX    TMP DP  RH WIND       PRES   REMARKS
MARIANNA       FAIR      92  56  29 E8        30.08F                  
TALLAHASSEE    FAIR      95  60  31 N7        30.07F HX  95           
PERRY          FAIR      94  59  30 NE5       30.08S                  
LIVE OAK       SUNNY     93  59  31 VRB3      30.07S                  
CROSS CITY     FAIR      94  60  32 E6        30.06S                  
LAKE CITY      FAIR      90  63  40 N7        30.08S                  
GAINESVILLE    FAIR      93  63  36 E10       30.10S                  
WILLISTON      FAIR      91  61  36 E6        30.07S                  
PALATKA        FAIR     N/A N/A N/A E9        30.10S                  
MAYPORT NAS    FAIR      82  65  56 SE10      30.10F                  
JACKSONVILLE   FAIR      88  62  41 E6        30.08S                  
JAX NAS        FAIR      89  59  36 E9        30.10S                  
JAX CECIL      SUNNY     93  61  33 E12       30.09S                  
FERNANDINA BEA FAIR      82  67  60 S12       30.10S                  
ST AUGUSTINE   FAIR      80  65  59 SE7       30.12S                  
PALM COAST     SUNNY     81  66  61 VRB6      30.11S                  

STATION/POSITION SKY/WX   TEMP    WIND        PRES    WAVE   SWELL
                          AIR SEA DIR/SP/G            HT/PER HT/PER
                          (F)     (DEG/KT/KT) (MB)    (FT/S) (FT/S)
SHELL POINT      NOT AVBL
KEATON BEACH               83     270/  8/ 10 1018.7S
CEDAR KEY                  82     320/  8/ 10 1018.4F
FERNANDINA                 85 84  150/  8/ 11 1019.9F
30.7N   81.3W                 82                N/A     3/ 7
MAYPORT                    81 83  140/  5/  9 1019.6F
31.4N   80.9W              79 80  170/ 12/ 14 1018.8F   2/ 7   2/ 7
ST AUGUSTINE               78 83  130/  6/  7 1019.9F

$$
FLZ040-043>046-052-053-057-058-063-144-250000-
INTERIOR CENTRAL FLORIDA
  
CITY           SKY/WX    TMP DP  RH WIND       PRES   REMARKS
OCALA          FAIR      90  61  37 E10       30.08S                  
LEESBURG       FAIR      87  61  41 E9        30.09S                  
SANFORD        FAIR      83  65  54 E12       30.10S                  
ORLANDO EXEC   FAIR      84  64  50 E13       30.09S                  
ORLANDO INTL   FAIR      84  64  50 NE12      30.09S                  
KISSIMMEE      FAIR      85  65  51 E13       30.09F                  
WINTER HAVEN   FAIR      88  64  44 E10       30.08F                  
LAKELAND       SUNNY     88  63  42 E12G18    30.07S                  
BARTOW         FAIR      86  63  45 E9G17     30.07S                  
SEBRING        FAIR      84  64  50 E12       30.08S                  
OKEECHOBEE     FAIR      81  63  54 E7        30.08S                  

$$
FLZ041-047-054-059-064-141-147-250000-
EAST CENTRAL FLORIDA
  
CITY           SKY/WX    TMP DP  RH WIND       PRES   REMARKS
ORMOND BEACH   SUNNY     79  68  69 E6        30.11S                  
DAYTONA BEACH  FAIR      80  69  69 E8        30.11S                  
DELAND         FAIR      82  63  51 E10       30.10S                  
NEW SMYRNA BEA SUNNY     81  68  65 E8        30.12S                  
TITUSVILLE     SUNNY     84  66  54 E10       30.11F                  
CAPE CANAVERAL FAIR      79  61  53 NE8       30.09F                  
PATRICK AFB    FAIR      79  68  68 E10       30.10S                  
MELBOURNE      FAIR      80  67  64 E12       30.10S                  
VERO BEACH     FAIR      79  65  62 NE10      30.09F                  
FT PIERCE      FAIR      79  64  60 NE5       30.09S                  
STUART         MOSUNNY   81  64  57 E12       30.10S                  

STATION/POSITION SKY/WX   TEMP    WIND        PRES    WAVE   SWELL
                          AIR SEA DIR/SP/G            HT/PER HT/PER
                          (F)     (DEG/KT/KT) (MB)    (FT/S) (FT/S)
28.5N   80.2W              78      50/  8/ 10 1019.8
28.9N   78.5W              77 79   40/  8/ 12 1019.9S   4/ 7   3/ 7
TRIDENT PIER               79 82   50/  7/ 11 1020.8F
28.4N   80.5W                 81                N/A     2/ 8
27.5N   80.2W                 78                N/A     3/ 7

$$
FLZ050-056-061-142-242-148-248-149-249-151-251-155-255-
160-260-250000-
WEST CENTRAL FLORIDA
  
CITY           SKY/WX    TMP DP  RH WIND       PRES   REMARKS
CRYSTAL RIVER  FAIR      86  72  62 W3        30.07S                  
INVERNESS      FAIR      91  64  40 E9        30.07S                  
BROOKSVILLE    FAIR      91  65  41 NE8       30.07S                  
CLEARWATER AIR FAIR      82  70  65 NW9       30.05S                  
ST PETE CLEARW FAIR      89  66  46 E9        30.05S                  
TAMPA INTL     FAIR      91  62  37 E17       30.06S                  
TAMPA EXEC     FAIR      90  63  40 E8        30.07R                  
PLANT CITY     FAIR      90  63  40 E12       30.09R                  
MACDILL AFB    FAIR      90  62  39 SE13      30.05S                  
PETER O KNIGHT CLOUDY    91  64  40 E10       30.06S                  
ST PETERSBURG  FAIR      88  68  51 E17       30.04S                  
SARASOTA       FAIR      91  59  33 NE14      30.03R                  
VENICE         FAIR      91  63  38 E12       30.04S                  

STATION/POSITION SKY/WX   TEMP    WIND        PRES    WAVE   SWELL
                          AIR SEA DIR/SP/G            HT/PER HT/PER
                          (F)     (DEG/KT/KT) (MB)    (FT/S) (FT/S)
27.3N   84.2W                 80                N/A     3/ 6
CLEARWATER BEACH           82 85  340/ 13/ 15 1018.0F
MIDDLE TAMPA BAY           88     100/ 13/ 15 1017.7F
VENICE                     89 82  100/ 10/ 13 1017.3R

$$
FLZ066-069-070-075>078-162-262-165-265-250000-
SOUTHWEST FLORIDA AND KEYS
  
CITY           SKY/WX    TMP DP  RH WIND       PRES   REMARKS
PUNTA GORDA    FAIR      87  61  41 E15G22    30.06S                  
FT MYERS       FAIR      85  63  47 E13       30.04S                  
SOUTHWEST INTL FAIR      86  62  44 E16       30.05S                  
NAPLES         FAIR      86  64  47 E15       30.03R                  
MARCO ISLAND   FAIR      86  66  51 NE14      30.04S                  
IMMOKALEE      FAIR      86  64  48 NE14      30.03S                  
MARATHON       FAIR      85  64  49 NE15      30.02S                  
KEY WEST NAS   FAIR      84  67  56 E20       30.02S                  
KEY WEST INTL  FAIR      82  67  60 E15G23    30.02S                  

STATION/POSITION SKY/WX   TEMP    WIND        PRES    WAVE   SWELL
                          AIR SEA DIR/SP/G            HT/PER HT/PER
                          (F)     (DEG/KT/KT) (MB)    (FT/S) (FT/S)
NAPLES                     87 84              1016.9S
DRY TORTUGAS               81      90/ 16/ 17 1016.6F
SAND KEY                   80                 1016.3F
SOMBRERO KEY               80                 1016.0R

$$
FLZ067-068-071>074-168-172>174-250000-
SOUTHEAST FLORIDA 
  
CITY           SKY/WX    TMP DP  RH WIND       PRES   REMARKS
W PALM BEACH   FAIR      81  64  56 NE14      30.08F                  
BOCA RATON     MOSUNNY   81  64  57 E16G25    30.07S                  
FT LAUDER-EXEC FAIR      81  64  56 NE16G22   30.06S                  
FT LAUDERDALE  FAIR      80  65  59 E16       30.05S                  
POMPANO BEACH  FAIR      81  64  56 NE16      30.06S                  
PEMBROKE PINES FAIR      80  65  59 NE16      30.07S                  
OPA LOCKA      PTSUNNY   81  65  58 NE18G25   30.06S                  
MIAMI          FAIR      81  65  58 NE14G22   30.05S                  
WEST KENDALL   PTSUNNY   83  64  52 E12       30.04S                  
HOMESTEAD      PTSUNNY   80  67  65 NE10      30.03F                  

STATION/POSITION SKY/WX   TEMP    WIND        PRES    WAVE   SWELL
                          AIR SEA DIR/SP/G            HT/PER HT/PER
                          (F)     (DEG/KT/KT) (MB)    (FT/S) (FT/S)
PORT EVERGLADES            80      50/ 12/ 17 1018.0
VIRGINIA KEY               80 83   30/ 10/ 16 1016.9F
LAKE WORTH                 78 81              1019.6S
SETTLEMENT POINT           77      60/ 14/ 15 1018.6R

$$